Date String (YYYY-MM-DD hh:mm:ss) UTC,Instrument flags,Ambient pressure (hPa),Sample flow (lpm),Bypass flow (lpm),Sample temperature (°C),Ambient temperature (°C),ASC tube jacket temperature (°C),LED temperature (°C),Box temperature (°C),Sample RH (%),Span deviation,Mass concentration (μg/m³),Mass concentration (μg/m³),Mass concentration (μg/m³)
DateTimeUTC,F1_M11,P_M11,Q1_M11,Q2_M11,T1_M11,T2_M11,T3_M11,T4_M11,T5_M11,U1_M11,ZSPAN_M11,X0_M11,X2_M11,X1_M11
2023-02-16 01:00:00,,0824.4,4.96,0.00,22.7,21.8,00.0,31.5,24.5,07.7,0000.0,0005.09,0002.95,0002.52
2023-02-16 01:01:00,,0824.4,4.94,0.00,22.8,22.9,00.0,31.5,24.8,07.7,0000.0,0005.23,0003.03,0002.54
2023-02-16 01:02:00,,0824.5,5.00,0.00,22.9,23.0,00.0,31.6,24.8,07.7,0000.0,0005.16,0003.04,0002.55
2023-02-16 01:03:00,,0824.5,4.99,0.00,22.9,22.4,00.0,31.6,24.7,07.7,0000.0,0005.14,0003.05,0002.56
2023-02-16 01:04:00,,0824.5,5.00,0.00,22.9,21.9,00.0,31.6,24.6,07.7,0000.0,0005.19,0003.08,0002.56
2023-02-16 01:05:00,,0824.4,5.00,0.00,22.8,21.5,00.0,31.6,24.5,07.7,0000.0,0004.92,0003.06,0002.57
2023-02-16 01:06:00,,0824.4,5.02,0.00,22.8,21.2,00.0,31.6,24.4,07.7,0000.0,0004.39,0003.02,0002.56
2023-02-16 01:07:00,,0824.5,4.99,0.00,22.7,21.0,00.0,31.6,24.3,07.7,0000.0,0004.20,0003.00,0002.58
2023-02-16 01:08:00,,0824.6,5.00,0.00,22.7,20.8,00.0,31.6,24.2,07.8,0000.0,0004.18,0003.02,0002.60
2023-02-16 01:09:00,,0824.5,4.99,0.00,22.6,20.7,00.0,31.6,24.2,07.8,0000.0,0004.22,0003.04,0002.62
2023-02-16 01:10:00,,0824.6,4.99,0.00,22.6,20.6,00.0,31.6,24.2,07.8,0000.0,0004.24,0003.06,0002.63
2023-02-16 01:11:00,,0824.7,4.99,0.00,22.6,20.7,00.0,31.5,24.2,07.8,0000.0,0005.58,0003.10,0002.65
2023-02-16 01:12:00,,0824.7,5.02,0.00,22.6,21.6,00.0,31.5,24.4,07.8,0000.0,0005.48,0003.07,0002.67
2023-02-16 01:13:00,,0824.6,4.98,0.00,22.7,22.7,00.0,31.5,24.7,07.8,0000.0,0005.40,0003.05,0002.67
2023-02-16 01:14:00,,0824.7,5.01,0.00,22.8,23.0,00.0,31.5,24.8,07.8,0000.0,0005.43,0003.07,0002.67
2023-02-16 01:15:00,,0824.6,4.99,0.00,22.8,22.4,00.0,31.6,24.7,07.7,0000.0,0005.43,0003.04,0002.65
2023-02-16 01:16:00,,0824.6,4.99,0.00,22.8,21.9,00.0,31.6,24.6,07.7,0000.0,0005.63,0003.07,0002.64
2023-02-16 01:17:00,,0824.6,5.00,0.00,22.8,21.5,00.0,31.6,24.5,07.8,0000.0,0005.72,0003.09,0002.64
2023-02-16 01:18:00,,0824.6,5.00,0.00,22.7,21.2,00.0,31.6,24.4,07.8,0000.0,0005.79,0003.08,0002.63
2023-02-16 01:19:00,,0824.7,5.04,0.00,22.7,21.0,00.0,31.6,24.3,07.8,0000.0,0005.71,0003.02,0002.60
2023-02-16 01:20:00,,0824.7,5.00,0.00,22.7,20.9,00.0,31.6,24.3,07.8,0000.0,0005.92,0003.02,0002.59
2023-02-16 01:21:00,,0824.7,4.99,0.00,22.6,20.8,00.0,31.6,24.3,07.8,0000.0,0005.86,0002.98,0002.57
2023-02-16 01:22:00,,0824.7,4.98,0.00,22.6,20.8,00.0,31.5,24.3,07.8,0000.0,0004.77,0002.95,0002.55
2023-02-16 01:23:00,,0824.7,5.01,0.00,22.6,20.7,00.0,31.5,24.2,07.9,0000.0,0006.25,0002.97,0002.54
2023-02-16 01:24:00,,0824.7,4.99,0.00,22.5,20.7,00.0,31.5,24.2,07.9,0000.0,0006.33,0002.99,0002.54
2023-02-16 01:25:00,,0824.8,5.05,0.00,22.6,21.2,00.0,31.5,24.3,07.9,0000.0,0006.32,0002.98,0002.53
2023-02-16 01:26:00,,0824.8,4.93,0.00,22.7,22.4,00.0,31.4,24.6,07.8,0000.0,0006.30,0002.97,0002.54
2023-02-16 01:27:00,,0824.9,4.98,0.00,22.8,23.1,00.0,31.5,24.8,07.8,0000.0,0006.16,0002.94,0002.54
2023-02-16 01:28:00,,0824.9,5.00,0.00,22.8,22.8,00.0,31.5,24.8,07.8,0000.0,0006.31,0002.93,0002.54
2023-02-16 01:29:00,,0824.9,5.00,0.00,22.8,22.3,00.0,31.5,24.7,07.8,0000.0,0007.33,0002.89,0002.53
2023-02-16 01:30:00,,0824.9,5.00,0.00,22.8,21.9,00.0,31.6,24.5,07.8,0000.0,0007.43,0002.93,0002.54
2023-02-16 01:31:00,,0824.9,4.98,0.00,22.8,21.6,00.0,31.6,24.5,07.8,0000.0,0007.35,0002.95,0002.55
2023-02-16 01:32:00,,0824.9,5.02,0.00,22.7,21.3,00.0,31.6,24.4,07.8,0000.0,0007.29,0002.95,0002.56
2023-02-16 01:33:00,,0824.9,4.98,0.00,22.7,21.1,00.0,31.6,24.4,07.8,0000.0,0007.00,0002.95,0002.57
2023-02-16 01:34:00,,0824.9,4.99,0.00,22.7,21.0,00.0,31.6,24.3,07.8,0000.0,0005.56,0002.94,0002.58
2023-02-16 01:35:00,,0824.9,5.01,0.00,22.6,20.9,00.0,31.6,24.3,07.8,0000.0,0005.49,0002.93,0002.60
2023-02-16 01:36:00,,0824.9,5.00,0.00,22.6,20.4,00.0,31.4,24.3,07.9,0000.0,0005.48,0002.95,0002.64
2023-02-16 01:37:00,,0824.9,4.99,0.00,22.6,20.8,00.0,31.5,24.2,07.9,0000.0,0005.47,0002.99,0002.67
2023-02-16 01:38:00,,0824.9,5.01,0.00,22.5,20.7,00.0,31.5,24.2,07.9,0000.0,0005.43,0003.02,0002.69
2023-02-16 01:39:00,,0824.9,5.04,0.00,22.6,21.5,00.0,31.5,24.4,07.9,0000.0,0005.31,0003.07,0002.73
2023-02-16 01:40:00,,0824.9,4.97,0.00,22.7,22.5,00.0,31.4,24.6,07.8,0000.0,0004.12,0003.12,0002.78
2023-02-16 01:41:00,,0825.0,5.07,0.00,22.8,23.1,00.0,31.5,24.8,07.8,0000.0,0004.03,0003.14,0002.82
2023-02-16 01:42:00,,0824.9,5.01,0.00,22.8,22.7,00.0,31.5,24.8,07.8,0000.0,0004.04,0003.15,0002.86
2023-02-16 01:43:00,,0824.9,4.99,0.00,22.8,22.3,00.0,31.6,24.7,07.8,0000.0,0004.05,0003.18,0002.92
2023-02-16 01:44:00,,0824.9,5.00,0.00,22.8,21.9,00.0,31.6,24.6,07.8,0000.0,0004.06,0003.20,0002.96
2023-02-16 01:45:00,,0824.9,5.00,0.00,22.8,21.6,00.0,31.6,24.5,07.8,0000.0,0004.27,0003.24,0003.00
2023-02-16 01:46:00,,0824.9,5.00,0.00,22.7,21.4,00.0,31.6,24.4,07.8,0000.0,0004.42,0003.28,0003.05
2023-02-16 01:47:00,,0825.0,4.99,0.00,22.7,21.2,00.0,31.6,24.4,07.8,0000.0,0004.47,0003.31,0003.09
2023-02-16 01:48:00,,0824.9,5.02,0.00,22.7,21.1,00.0,31.6,24.4,07.8,0000.0,0004.63,0003.35,0003.14
2023-02-16 01:49:00,,0825.0,5.00,0.00,22.7,20.9,00.0,31.6,24.3,07.8,0000.0,0004.88,0003.39,0003.17
2023-02-16 01:50:00,,0825.0,5.02,0.00,22.6,20.8,00.0,31.5,24.3,07.8,0000.0,0004.94,0003.41,0003.21
2023-02-16 01:51:00,,0825.0,4.99,0.00,22.6,20.8,00.0,31.5,24.2,07.9,0000.0,0004.95,0003.43,0003.23
2023-02-16 01:52:00,,0824.9,5.00,0.00,22.6,20.8,00.0,31.5,24.2,07.9,0000.0,0004.97,0003.44,0003.25
2023-02-16 01:53:00,,0825.0,5.02,0.00,22.6,21.6,00.0,31.5,24.4,07.9,0000.0,0005.01,0003.45,0003.26
2023-02-16 01:54:00,,0825.0,4.97,0.00,22.7,22.7,00.0,31.5,24.7,07.8,0000.0,0005.00,0003.46,0003.27
2023-02-16 01:55:00,,0825.0,5.01,0.00,22.8,23.1,00.0,31.5,24.8,07.8,0000.0,0005.05,0003.48,0003.29
2023-02-16 01:56:00,,0825.0,5.02,0.00,22.8,22.7,00.0,31.5,24.8,07.7,0000.0,0005.05,0003.50,0003.31
2023-02-16 01:57:00,,0825.0,5.00,0.00,22.8,22.2,00.0,31.6,24.7,07.7,0000.0,0005.03,0003.51,0003.32
2023-02-16 01:58:00,,0825.0,5.02,0.00,22.8,21.9,00.0,31.6,24.6,07.7,0000.0,0005.22,0003.53,0003.32
2023-02-16 01:59:00,,0825.0,5.01,0.00,22.8,21.6,00.0,31.6,24.5,07.7,0000.0,0005.40,0003.54,0003.33
